Regional Weather Roundup
Issued by NWS

Home | Current Version | Previous Version | Graphics & Text | Print | Product List | Glossary Off
Versions: 1 2 3 4 5 6 7 8 9 10 11 12 13 14 15 16 17 18 19 20 21 22 23 24 25 26 27 28 29 30 31 32 33 34 35 36 37 38 39 40 41 42 43 44 45 46 47 48 49 50

000
ASUS43 KMKX 212221
RWRWI

WISCONSIN REGIONAL WEATHER ROUNDUP
NATIONAL WEATHER SERVICE MILWAUKEE/SULLIVAN WI
500 PM CDT TUE OCT 21 2014

NOTE: "FAIR" INDICATES FEW OR NO CLOUDS BELOW 12,000 FEET WITH NO
SIGNIFICANT WEATHER AND/OR OBSTRUCTIONS TO VISIBILITY.

WIZ001-002-006>008-014>016-023>028-212300-
NORTHWEST WISCONSIN

CITY           SKY/WX    TMP DP  RH WIND       PRES   REMARKS
SUPERIOR ARPT  SUNNY     46  37  73 E13       30.20F
ASHLAND        CLEAR     46  36  68 NE13      30.23F
HAYWARD        SUNNY     51  35  54 E7        30.19F
SIREN          SUNNY     55  35  46 SE7       30.16F
CUMBERLAND     SUNNY     52  34  50 SE10      30.18S
RICE LAKE      SUNNY     54  35  50 SE9       30.20S
CHETEK         SUNNY     53  37  53 E9        30.19S
LADYSMITH      SUNNY     55  36  49 SE6       30.21S
EAU CLAIRE     SUNNY     55  35  47 SE9       30.18F
MENOMONIE      SUNNY     55  37  49 E9        30.18F
NEW RICHMOND   SUNNY     54  38  54 SE8       30.17S
OSCEOLA        SUNNY     55  40  56 SE9       30.19S
$$

WIZ003>005-009-010-017-018-212300-
NORTH CENTRAL WISCONSIN

CITY           SKY/WX    TMP DP  RH WIND       PRES   REMARKS
MANITOWISH WTR CLEAR     46  34  62 E6        30.22S
ARBOR VITAE    CLEAR     48  35  61 SE7       30.22F
WOODRUFF       CLEAR     48  35  61 SE7       30.22F
RHINELANDER    CLEAR     48  34  58 NE3       30.22F
EAGLE RIVER    CLEAR     47  31  53 CALM      30.22S
LAND O LAKES   CLEAR     49  30  48 CALM      30.23S
PHILLIPS       CLEAR     47  35  61 E5        30.21S
TOMAHAWK       CLEAR     49  34  56 CALM      30.22F
MEDFORD        SUNNY     48  35  59 S3        30.21S
MERRILL        CLEAR     51  34  51 CALM      30.22S
$$

WIZ029-030-035-036-043>047-212300-
CENTRAL WISCONSIN

CITY           SKY/WX    TMP DP  RH WIND       PRES   REMARKS
WAUSAU         CLEAR     51  35  54 CALM      30.21R
MOSINEE        CLEAR     52  37  58 VRB3      30.23R
MARSHFIELD     SUNNY     51  36  56 SE7       30.21S
STEVENS POINT  CLEAR     49  33  54 E5        30.22S
WAUPACA        CLEAR     54  34  47 E6        30.23S
WAUTOMA        CLOUDY    52  35  52 VRB5      30.23S
WISC RAPIDS    SUNNY     51  35  54 E6        30.23S
CAMP DOUGLAS   SUNNY     50  37  62 E7        30.22R
$$

WIZ011>013-019>022-031-037>040-048>050-212300-
NORTHEAST WISCONSIN

CITY           SKY/WX    TMP DP  RH WIND       PRES   REMARKS
ANTIGO         CLEAR     49  33  53 CALM      30.22S
SHAWANO        CLEAR     55  33  44 E3        30.23S
OCONTO         CLEAR     49  37  65 E5        30.24R
STURGEON BAY   CLEAR     48  30  49 NE6       30.24R
GREEN BAY      CLEAR     50  36  58 NE6       30.24R
MANITOWOC      CLEAR     48  39  71 NE7       30.24R
APPLETON       CLEAR     52  32  46 E7        30.23R
CLINTONVILLE   CLEAR     52  32  46 CALM      30.23R
OSHKOSH        CLEAR     50  33  52 NE8       30.23S
$$

WIZ032>034-041-042-053>061-212300-
SOUTHWEST WISCONSIN

CITY           SKY/WX    TMP DP  RH WIND       PRES   REMARKS
LA CROSSE      SUNNY     58  36  43 E7        30.18S
SPARTA         SUNNY     54  35  48 E8        30.22R
VIROQUA        SUNNY     54  35  49 E6        30.20R
BOSCOBEL       SUNNY     56  37  49 E6        30.21R
PRAIRIE DU CHI SUNNY     56  34  43 E5        30.18R
PLATTEVILLE    SUNNY     53  37  55 E8        30.21R
$$

WIZ056-057-062-063-064-067-068-212300-
SOUTH CENTRAL WISCONSIN

CITY           SKY/WX    TMP DP  RH WIND       PRES   REMARKS
REEDSBURG      SUNNY     49  36  61 E5        30.22S
BARABOO/DELLS  SUNNY     48  35  59 E6        30.23R HAZE
LONE ROCK      SUNNY     55  37  50 E9        30.22R
MINERAL POINT  SUNNY     52  36  54 E8        30.21R
MADISON        PTSUNNY   48  37  65 NE8       30.24R
MIDDLETON      CLOUDY    49  36  60 E5        30.23S
WATERTOWN      MOCLDY    45  37  74 N5        30.23R
MONROE         MOSUNNY   48  37  66 NE8       30.21R
JANESVILLE     CLOUDY    50  37  62 N7        30.21S
$$

WIZ051-052-058>065-066-070>072-212300-
SOUTHEAST WISCONSIN

CITY           SKY/WX    TMP DP  RH WIND       PRES   REMARKS
MILWAUKEE      PTCLDY    48  37  65 NE12      30.22S
WAUKESHA       PTCLDY    46  36  66 CALM      30.22S
MILWAUKEE/TIMM CLEAR     48  36  61 NE9       30.23R
RACINE         PTCLDY    48  37  65 N14       30.23R
BURLINGTON     MOCLDY    46  35  65 NE6       30.22R
KENOSHA        PTCLDY    48  37  65 N7        30.22R
FOND DU LAC    CLEAR     49  35  58 N9        30.23S
SHEBOYGAN      CLEAR     48  38  68 NE12      30.23R
WEST BEND      PTCLDY    48  34  57 NE5       30.22R
JUNEAU         CLEAR     47  36  65 N3        30.24S
$$

LSZ147-162-212300-
LAKE SUPERIOR

STATION/POSITION TIME  TEMP    WIND        PRES    WAVE
                       AIR SEA DIR/SP/G            HT/PER
                 (UTC) (F)     (DEG/KT/KT) (MB)    (FT/S)
W MID LAKE BUOY  2150   42 46   80/ 10/ 12 1025.3F   2/ 5
DEVILS ISLAND    2200   43      80/ 13/ 14 1024.9F
PORT WING        2140   47      30/ 14/ 16 1023.4F
SAXON HARBOR     2100   46      40/  9/ 11 1024.0F
$$

LMZ867-665-643>646-212300-
LAKE MICHIGAN

STATION/POSITION TIME  TEMP    WIND        PRES    WAVE
                       AIR SEA DIR/SP/G            HT/PER
                 (UTC) (F)     (DEG/KT/KT) (MB)    (FT/S)
CHAMBERS ISLAND  2100   49      30/  9/ 12 1023.7S
N MID LAKE BUOY  2150   47 51   20/  8/ 10 1024.1R   1/ 3
NORTHPORT PIER   2100   49     340/ 10/ 12 1023.7R
SISTER BAY       2112           10/ 10/ 13   N/A
KEWAUNEE LAKESHO 2200   48      30/  7/ 10 1023.0R
SHEBOYGAN LAKESH 2200   47 50   30/ 16/ 17 1024.2R
PORT WASHINGTON  2140   49      40/ 12/ 17 1023.7S
ATWATER BUOY     2200   49      20/ 16/ 19 1024.1R
MILWAUKEE LAKESH 2100   48      30/ 16/ 18   N/A
S MID LAKE BUOY  2150   49 54  350/ 16/ 19 1022.4R   5/ 7
KENOSHA   LAKESH 2200   48     360/ 18/ 23 1022.7S
$$

TC  - TEMPERATURE IN CELSIUS
VSB - VISIBILITY IN STATUTE MILES
WCI - WIND CHILL INDEX
HX  - HEAT INDEX




USA.gov is the U.S. government's official web portal to all federal, state and local government web resources and services.